LOT267 EPWA-EHAM

Flight info

Callsign LOT267
Flight time N/A
Altitude 36000
Route LOLSI T174 INDIG DCT GOVEN DCT NORKU
Aircraft B738/M-SDE2E3FGHIRWXY/LB1

Departure

Time 2026-05-04 16:53
Airport Warsaw Chopin Airport (EPWA)

Arrival

Time N/A
Airport Amsterdam Airport Schiphol (EHAM)
Time Latitude Longitude Altitude Speed Heading
2026-05-04 16:20 52.17048 20.97103 339 ft 0 kts 77°
2026-05-04 16:21 52.17047 20.97100 339 ft 0 kts 77°
2026-05-04 16:42 52.17046 20.97090 339 ft 2 kts 76°
2026-05-04 16:43 52.17039 20.97044 338 ft 2 kts 76°
2026-05-04 16:43 52.17032 20.96997 338 ft 2 kts 76°
2026-05-04 16:43 52.17028 20.96974 338 ft 1 kts 76°
2026-05-04 16:44 52.17037 20.96947 338 ft 0 kts 150°
2026-05-04 16:48 52.16999 20.96985 338 ft 5 kts 149°
2026-05-04 16:48 52.16956 20.97024 338 ft 11 kts 152°
2026-05-04 16:49 52.16819 20.97149 338 ft 12 kts 150°
2026-05-04 16:49 52.16678 20.97275 338 ft 10 kts 152°
2026-05-04 16:50 52.16568 20.97396 338 ft 9 kts 117°
2026-05-04 16:50 52.16506 20.97604 338 ft 10 kts 116°
2026-05-04 16:51 52.16392 20.97793 337 ft 11 kts 204°
2026-05-04 16:51 52.16325 20.97737 337 ft 9 kts 220°
2026-05-04 16:51 52.16330 20.97577 337 ft 7 kts 293°
2026-05-04 16:52 52.16695 20.96279 339 ft 132 kts 294°
2026-05-04 16:52 52.17168 20.94645 514 ft 175 kts 294°
2026-05-04 16:53 52.18189 20.90993 1990 ft 186 kts 289°
2026-05-04 16:53 52.17950 20.84106 3411 ft 233 kts 269°
2026-05-04 16:54 52.18182 20.81454 4206 ft 242 kts 281°
2026-05-04 16:55 52.18097 20.69752 7423 ft 273 kts 268°
2026-05-04 16:55 52.18073 20.63538 9167 ft 280 kts 269°
2026-05-04 16:56 52.18060 20.57074 10595 ft 297 kts 269°
2026-05-04 16:56 52.18035 20.45754 11525 ft 362 kts 269°
2026-05-04 16:57 52.18025 20.41641 12227 ft 370 kts 269°
2026-05-04 16:57 52.18000 20.33336 13804 ft 378 kts 268°
2026-05-04 16:58 52.17946 20.20226 16146 ft 388 kts 269°
2026-05-04 16:58 52.17925 20.15779 16878 ft 392 kts 269°
2026-05-04 16:59 52.17878 20.07093 18241 ft 398 kts 269°
2026-05-04 17:00 52.17768 19.89949 20672 ft 410 kts 269°
2026-05-04 17:00 52.16743 19.75916 22420 ft 420 kts 262°
2026-05-04 17:01 52.15904 19.66455 23486 ft 427 kts 263°
2026-05-04 17:01 52.15033 19.56837 24508 ft 433 kts 263°
2026-05-04 17:02 52.14144 19.47101 25458 ft 439 kts 263°
2026-05-04 17:02 52.13230 19.37176 26363 ft 445 kts 263°
2026-05-04 17:03 52.12765 19.32171 26799 ft 448 kts 263°
2026-05-04 17:03 52.12296 19.27149 27222 ft 451 kts 263°
2026-05-04 17:03 52.11344 19.17041 28015 ft 456 kts 263°
2026-05-04 17:04 52.10371 19.06791 28831 ft 459 kts 263°
2026-05-04 17:04 52.09399 18.96678 30075 ft 451 kts 263°
2026-05-04 17:05 52.08427 18.86638 30989 ft 448 kts 263°
2026-05-04 17:05 52.07452 18.76654 31825 ft 447 kts 263°
2026-05-04 17:06 52.06472 18.66713 32593 ft 445 kts 263°
2026-05-04 17:06 52.05985 18.61802 32952 ft 444 kts 263°
2026-05-04 17:07 52.04999 18.51931 33635 ft 443 kts 264°
2026-05-04 17:07 52.04668 18.48641 33854 ft 443 kts 264°
2026-05-04 17:07 52.04004 18.42053 34281 ft 442 kts 264°
2026-05-04 17:07 52.03509 18.37176 34596 ft 441 kts 264°
2026-05-04 17:08 52.03008 18.32258 34898 ft 440 kts 263°
2026-05-04 17:08 52.02003 18.22463 35482 ft 439 kts 263°
2026-05-04 17:08 52.01504 18.17625 35756 ft 438 kts 263°
2026-05-04 17:09 52.00991 18.12674 35917 ft 441 kts 263°
2026-05-04 17:09 52.00059 18.02890 35912 ft 439 kts 266°
2026-05-04 17:10 52.00401 17.78420 35934 ft 433 kts 275°
2026-05-04 17:11 52.00679 17.68681 35938 ft 434 kts 275°
2026-05-04 17:12 52.01096 17.53983 35939 ft 434 kts 275°
2026-05-04 17:13 52.01767 17.29619 35939 ft 434 kts 274°
2026-05-04 17:14 52.02272 17.10063 35939 ft 434 kts 274°
2026-05-04 17:15 52.02631 16.95375 35939 ft 430 kts 275°
2026-05-04 17:16 52.03065 16.76495 35939 ft 412 kts 276°
2026-05-04 17:17 52.03469 16.57824 35939 ft 416 kts 276°
2026-05-04 17:18 52.03842 16.39096 35939 ft 415 kts 276°
2026-05-04 17:19 52.04185 16.20372 35939 ft 416 kts 275°
2026-05-04 17:20 52.04498 16.01603 35939 ft 415 kts 275°
2026-05-04 17:20 52.04714 15.87557 35939 ft 415 kts 275°
2026-05-04 17:21 52.04975 15.68867 35939 ft 415 kts 275°
2026-05-04 17:22 52.05095 15.59473 35939 ft 415 kts 275°
2026-05-04 17:23 52.05312 15.40741 35939 ft 415 kts 275°
2026-05-04 17:24 52.05452 15.26978 35939 ft 416 kts 275°
2026-05-04 17:25 52.05617 15.08229 35939 ft 414 kts 275°
2026-05-04 17:25 52.05682 14.99082 35939 ft 397 kts 276°
2026-05-04 17:26 52.05740 14.90293 35939 ft 380 kts 277°
2026-05-04 17:27 52.06105 14.69232 35939 ft 375 kts 282°
2026-05-04 17:28 52.07035 14.52406 35939 ft 374 kts 281°
2026-05-04 17:29 52.08316 14.27120 35939 ft 375 kts 280°
2026-05-04 17:31 52.09332 14.06052 35939 ft 374 kts 280°
2026-05-04 17:32 52.10312 13.84956 35939 ft 374 kts 280°
2026-05-04 17:33 52.11071 13.68031 35939 ft 374 kts 280°
2026-05-04 17:34 52.11805 13.51118 35939 ft 374 kts 280°
2026-05-04 17:35 52.12684 13.30047 35939 ft 375 kts 279°
2026-05-04 17:36 52.13028 13.21568 35939 ft 375 kts 279°
2026-05-04 17:36 52.13361 13.13163 35939 ft 373 kts 279°
2026-05-04 17:37 52.13687 13.04797 35939 ft 368 kts 278°
2026-05-04 17:37 52.14003 12.96548 35939 ft 364 kts 277°
2026-05-04 17:38 52.14314 12.88328 35939 ft 363 kts 277°
2026-05-04 17:38 52.14618 12.80095 35939 ft 365 kts 277°
2026-05-04 17:39 52.15065 12.67713 35939 ft 365 kts 277°
2026-05-04 17:39 52.15355 12.59475 35939 ft 364 kts 277°
2026-05-04 17:40 52.15639 12.51243 35939 ft 364 kts 277°
2026-05-04 17:40 52.15917 12.43014 35939 ft 364 kts 277°
2026-05-04 17:41 52.16188 12.34806 35939 ft 365 kts 277°
2026-05-04 17:41 52.16457 12.26541 35939 ft 366 kts 277°
2026-05-04 17:42 52.16714 12.18385 35939 ft 365 kts 277°
2026-05-04 17:42 52.16971 12.10109 35939 ft 365 kts 277°
2026-05-04 17:43 52.17220 12.01873 35939 ft 365 kts 277°
2026-05-04 17:43 52.17465 11.93617 35939 ft 365 kts 277°
2026-05-04 17:44 52.17703 11.85382 35939 ft 365 kts 277°
2026-05-04 17:44 52.17938 11.77046 35939 ft 365 kts 277°
2026-05-04 17:45 52.18163 11.68840 35939 ft 365 kts 277°
2026-05-04 17:45 52.18384 11.60598 35939 ft 365 kts 277°
2026-05-04 17:46 52.18601 11.52308 35939 ft 365 kts 277°
2026-05-04 17:46 52.18810 11.44048 35939 ft 365 kts 277°
2026-05-04 17:47 52.19014 11.35821 35939 ft 365 kts 277°
2026-05-04 17:47 52.19190 11.28511 35939 ft 366 kts 276°
2026-05-04 17:48 52.19382 11.20273 35939 ft 366 kts 276°
2026-05-04 17:48 52.19569 11.12023 35939 ft 365 kts 276°
2026-05-04 17:49 52.19751 11.03745 35939 ft 365 kts 276°
2026-05-04 17:49 52.19926 10.95490 35939 ft 365 kts 275°
2026-05-04 17:50 52.20095 10.87264 35939 ft 363 kts 274°
2026-05-04 17:50 52.20259 10.79013 35939 ft 363 kts 274°